Year,Month,Day,Hour,Minute,Value (Times are PST for temperature in C)
2009,12,10,00,00,-8.50
2009,12,10,00,01,-8.50
2009,12,10,00,02,-8.50
2009,12,10,00,03,-8.50
2009,12,10,00,04,-8.50
2009,12,10,00,05,-8.50
2009,12,10,00,06,-8.50
2009,12,10,00,07,-8.50
2009,12,10,00,08,-8.50
2009,12,10,00,09,-8.50
2009,12,10,00,10,-8.50
2009,12,10,00,11,-8.50
2009,12,10,00,12,-8.50
2009,12,10,00,13,-8.50
2009,12,10,00,14,-8.50
2009,12,10,00,15,-8.50
2009,12,10,00,16,-8.50
2009,12,10,00,17,-8.60
2009,12,10,00,18,-8.60
2009,12,10,00,19,-8.60
2009,12,10,00,20,-8.60
2009,12,10,00,21,-8.60
2009,12,10,00,22,-8.60
2009,12,10,00,23,-8.60
2009,12,10,00,24,-8.60
2009,12,10,00,25,-8.70
2009,12,10,00,26,-8.70
2009,12,10,00,27,-8.70
2009,12,10,00,28,-8.70
2009,12,10,00,29,-8.70
2009,12,10,00,30,-8.70
2009,12,10,00,31,-8.70
2009,12,10,00,32,-8.80
2009,12,10,00,33,-8.80
2009,12,10,00,34,-8.80
2009,12,10,00,35,-8.80
2009,12,10,00,36,-8.80
2009,12,10,00,37,-8.80
2009,12,10,00,38,-8.80
2009,12,10,00,39,-8.80
2009,12,10,00,40,-8.80
2009,12,10,00,41,-8.80
2009,12,10,00,42,-8.80
2009,12,10,00,43,-8.80
2009,12,10,00,44,-8.80
2009,12,10,00,45,-8.80
2009,12,10,00,46,-8.80
2009,12,10,00,47,-8.80
2009,12,10,00,48,-8.80
2009,12,10,00,49,-8.80
2009,12,10,00,50,-8.80
2009,12,10,00,51,-8.80
2009,12,10,00,52,-8.70
2009,12,10,00,53,-8.70
2009,12,10,00,54,-8.70
2009,12,10,00,55,-8.70
2009,12,10,00,56,-8.70
2009,12,10,00,57,-8.70
2009,12,10,00,58,-8.70
2009,12,10,00,59,-8.70
2009,12,10,01,00,-8.70
2009,12,10,01,01,-8.70
2009,12,10,01,02,-8.70
2009,12,10,01,03,-8.70
2009,12,10,01,04,-8.70
2009,12,10,01,05,-8.70
2009,12,10,01,06,-8.70
2009,12,10,01,07,-8.70
2009,12,10,01,08,-8.80
2009,12,10,01,09,-8.80
2009,12,10,01,10,-8.80
2009,12,10,01,11,-8.80
2009,12,10,01,12,-8.80
2009,12,10,01,13,-8.80
2009,12,10,01,14,-8.80
2009,12,10,01,15,-8.80
2009,12,10,01,16,-8.80
2009,12,10,01,17,-8.80
2009,12,10,01,18,-8.80
2009,12,10,01,19,-8.80
2009,12,10,01,20,-8.80
2009,12,10,01,21,-8.80
2009,12,10,01,22,-8.70
2009,12,10,01,23,-8.70
2009,12,10,01,24,-8.70
2009,12,10,01,25,-8.70
2009,12,10,01,26,-8.70
2009,12,10,01,27,-8.70
2009,12,10,01,28,-8.70
2009,12,10,01,29,-8.70
2009,12,10,01,30,-8.70
2009,12,10,01,31,-8.70
2009,12,10,01,32,-8.70
2009,12,10,01,33,-8.70
2009,12,10,01,34,-8.70
2009,12,10,01,35,-8.70
2009,12,10,01,36,-8.70
2009,12,10,01,37,-8.70
2009,12,10,01,38,-8.70
2009,12,10,01,39,-8.70
2009,12,10,01,40,-8.70
2009,12,10,01,41,-8.70
2009,12,10,01,42,-8.70
2009,12,10,01,43,-8.70
2009,12,10,01,44,-8.70
2009,12,10,01,45,-8.70
2009,12,10,01,46,-8.80
2009,12,10,01,47,-8.80
2009,12,10,01,48,-8.80
2009,12,10,01,49,-8.80
2009,12,10,01,50,-8.80
2009,12,10,01,51,-8.80
2009,12,10,01,52,-8.80
2009,12,10,01,53,-8.80
2009,12,10,01,54,-8.80
2009,12,10,01,55,-8.80
2009,12,10,01,56,-8.80
2009,12,10,01,57,-8.80
2009,12,10,01,58,-8.80
2009,12,10,01,59,-8.80
2009,12,10,02,00,-8.80
2009,12,10,02,01,-8.80
2009,12,10,02,02,-8.80
2009,12,10,02,03,-8.80
2009,12,10,02,04,-8.80
2009,12,10,02,05,-8.70
2009,12,10,02,06,-8.70
2009,12,10,02,07,-8.70
2009,12,10,02,08,-8.70
2009,12,10,02,09,-8.70
2009,12,10,02,10,-8.70
2009,12,10,02,11,-8.70
2009,12,10,02,12,-8.70
2009,12,10,02,13,-8.70
2009,12,10,02,14,-8.70
2009,12,10,02,15,-8.70
2009,12,10,02,16,-8.70
2009,12,10,02,17,-8.70
2009,12,10,02,18,-8.70
2009,12,10,02,19,-8.70
2009,12,10,02,20,-8.70
2009,12,10,02,21,-8.70
2009,12,10,02,22,-8.70
2009,12,10,02,23,-8.70
2009,12,10,02,24,-8.70
2009,12,10,02,25,-8.70
2009,12,10,02,26,-8.70
2009,12,10,02,27,-8.70
2009,12,10,02,28,-8.70
2009,12,10,02,29,-8.70
2009,12,10,02,30,-8.70
2009,12,10,02,31,-8.70
2009,12,10,02,32,-8.70
2009,12,10,02,33,-8.70
2009,12,10,02,34,-8.70
2009,12,10,02,35,-8.70
2009,12,10,02,36,-8.70
2009,12,10,02,37,-8.70
2009,12,10,02,38,-8.70
2009,12,10,02,39,-8.70
2009,12,10,02,40,-8.70
2009,12,10,02,41,-8.70
2009,12,10,02,42,-8.70
2009,12,10,02,43,-8.70
2009,12,10,02,44,-8.80
2009,12,10,02,45,-8.80
2009,12,10,02,46,-8.80
2009,12,10,02,47,-8.80
2009,12,10,02,48,-8.80
2009,12,10,02,49,-8.80
2009,12,10,02,50,-8.90
2009,12,10,02,51,-8.90
2009,12,10,02,52,-8.90
2009,12,10,02,53,-8.90
2009,12,10,02,54,-8.90
2009,12,10,02,55,-8.90
2009,12,10,02,56,-8.90
2009,12,10,02,57,-8.90
2009,12,10,02,58,-8.90
2009,12,10,02,59,-8.90
2009,12,10,03,00,-8.90
2009,12,10,03,01,-8.80
2009,12,10,03,02,-8.80
2009,12,10,03,03,-8.80
2009,12,10,03,04,-8.80
2009,12,10,03,05,-8.80
2009,12,10,03,06,-8.80
2009,12,10,03,07,-8.80
2009,12,10,03,08,-8.80
2009,12,10,03,09,-8.80
2009,12,10,03,10,-8.80
2009,12,10,03,11,-8.80
2009,12,10,03,12,-8.80
2009,12,10,03,13,-8.80
2009,12,10,03,14,-8.80
2009,12,10,03,15,-8.80
2009,12,10,03,16,-8.80
2009,12,10,03,17,-8.80
2009,12,10,03,18,-8.80
2009,12,10,03,19,-8.70
2009,12,10,03,20,-8.70
2009,12,10,03,21,-8.70
2009,12,10,03,22,-8.70
2009,12,10,03,23,-8.70
2009,12,10,03,24,-8.70
2009,12,10,03,25,-8.80
2009,12,10,03,26,-8.80
2009,12,10,03,27,-8.80
2009,12,10,03,28,-8.80
2009,12,10,03,29,-8.80
2009,12,10,03,30,-8.80
2009,12,10,03,31,-8.80
2009,12,10,03,32,-8.80
2009,12,10,03,33,-8.80
2009,12,10,03,34,-8.80
2009,12,10,03,35,-8.80
2009,12,10,03,36,-8.80
2009,12,10,03,37,-8.80
2009,12,10,03,38,-8.80
2009,12,10,03,39,-8.80
2009,12,10,03,40,-8.80
2009,12,10,03,41,-8.80
2009,12,10,03,42,-8.80
2009,12,10,03,43,-8.80
2009,12,10,03,44,-8.80
2009,12,10,03,45,-8.80
2009,12,10,03,46,-8.80
2009,12,10,03,47,-8.80
2009,12,10,03,48,-8.80
2009,12,10,03,49,-8.80
2009,12,10,03,50,-8.80
2009,12,10,03,51,-8.90
2009,12,10,03,52,-8.90
2009,12,10,03,53,-8.90
2009,12,10,03,54,-8.90
2009,12,10,03,55,-8.90
2009,12,10,03,56,-8.90
2009,12,10,03,57,-8.90
2009,12,10,03,58,-8.90
2009,12,10,03,59,-8.90
2009,12,10,04,00,-8.90
2009,12,10,04,01,-8.90
2009,12,10,04,02,-8.90
2009,12,10,04,03,-8.90
2009,12,10,04,04,-8.80
2009,12,10,04,06,-8.80
2009,12,10,04,08,-8.80
2009,12,10,04,09,-8.80
2009,12,10,04,10,-8.80
2009,12,10,04,11,-8.80
2009,12,10,04,12,-8.80
2009,12,10,04,13,-8.80
2009,12,10,04,14,-8.80
2009,12,10,04,15,-8.70
2009,12,10,04,16,-8.70
2009,12,10,04,17,-8.70
2009,12,10,04,18,-8.70
2009,12,10,04,19,-8.70
2009,12,10,04,20,-8.60
2009,12,10,04,21,-8.60
2009,12,10,04,22,-8.60
2009,12,10,04,23,-8.70
2009,12,10,04,24,-8.70
2009,12,10,04,25,-8.70
2009,12,10,04,26,-8.70
2009,12,10,04,27,-8.70
2009,12,10,04,28,-8.70
2009,12,10,04,29,-8.70
2009,12,10,04,30,-8.70
2009,12,10,04,31,-8.70
2009,12,10,04,32,-8.70
2009,12,10,04,33,-8.70
2009,12,10,04,34,-8.70
2009,12,10,04,35,-8.70
2009,12,10,04,36,-8.70
2009,12,10,04,37,-8.70
2009,12,10,04,38,-8.70
2009,12,10,04,39,-8.70
2009,12,10,04,40,-8.70
2009,12,10,04,41,-8.70
2009,12,10,04,42,-8.70
2009,12,10,04,43,-8.70
2009,12,10,04,44,-8.70
2009,12,10,04,45,-8.70
2009,12,10,04,46,-8.70
2009,12,10,04,47,-8.70
2009,12,10,04,48,-8.70
2009,12,10,04,49,-8.70
2009,12,10,04,50,-8.70
2009,12,10,04,51,-8.80
2009,12,10,04,52,-8.80
2009,12,10,04,53,-8.80
2009,12,10,04,54,-8.80
2009,12,10,04,55,-8.80
2009,12,10,04,56,-8.80
2009,12,10,04,57,-8.80
2009,12,10,04,58,-8.90
2009,12,10,04,59,-8.90
2009,12,10,05,00,-8.90
2009,12,10,05,01,-8.90
2009,12,10,05,02,-8.90
2009,12,10,05,03,-8.90
2009,12,10,05,04,-8.80
2009,12,10,05,05,-8.80
2009,12,10,05,06,-8.80
2009,12,10,05,07,-8.80
2009,12,10,05,08,-8.80
2009,12,10,05,09,-8.80
2009,12,10,05,10,-8.70
2009,12,10,05,11,-8.70
2009,12,10,05,12,-8.70
2009,12,10,05,13,-8.70
2009,12,10,05,14,-8.70
2009,12,10,05,15,-8.70
2009,12,10,05,16,-8.70
2009,12,10,05,17,-8.70
2009,12,10,05,18,-8.70
2009,12,10,05,19,-8.70
2009,12,10,05,20,-8.70
2009,12,10,05,21,-8.70
2009,12,10,05,22,-8.70
2009,12,10,05,23,-8.80
2009,12,10,05,24,-8.80
2009,12,10,05,25,-8.80
2009,12,10,05,26,-8.80
2009,12,10,05,27,-8.80
2009,12,10,05,28,-8.80
2009,12,10,05,29,-8.80
2009,12,10,05,30,-8.80
2009,12,10,05,31,-8.80
2009,12,10,05,32,-8.70
2009,12,10,05,33,-8.70
2009,12,10,05,34,-8.70
2009,12,10,05,35,-8.70
2009,12,10,05,36,-8.70
2009,12,10,05,37,-8.70
2009,12,10,05,38,-8.70
2009,12,10,05,39,-8.70
2009,12,10,05,40,-8.70
2009,12,10,05,41,-8.70
2009,12,10,05,42,-8.70
2009,12,10,05,43,-8.70
2009,12,10,05,44,-8.70
2009,12,10,05,45,-8.70
2009,12,10,05,46,-8.70
2009,12,10,05,47,-8.70
2009,12,10,05,48,-8.70
2009,12,10,05,49,-8.70
2009,12,10,05,50,-8.70
2009,12,10,05,51,-8.70
2009,12,10,05,52,-8.70
2009,12,10,05,53,-8.70
2009,12,10,05,54,-8.70
2009,12,10,05,55,-8.70
2009,12,10,05,56,-8.80
2009,12,10,05,57,-8.80
2009,12,10,05,58,-8.80
2009,12,10,05,59,-8.80
2009,12,10,06,00,-8.80
2009,12,10,06,01,-8.80
2009,12,10,06,02,-8.80
2009,12,10,06,03,-8.80
2009,12,10,06,04,-8.90
2009,12,10,06,05,-8.90
2009,12,10,06,06,-8.90
2009,12,10,06,07,-8.90
2009,12,10,06,08,-8.90
2009,12,10,06,09,-8.90
2009,12,10,06,10,-8.90
2009,12,10,06,11,-8.90
2009,12,10,06,12,-8.90
2009,12,10,06,13,-8.90
2009,12,10,06,14,-8.90
2009,12,10,06,15,-8.90
2009,12,10,06,16,-8.90
2009,12,10,06,17,-8.90
2009,12,10,06,18,-8.90
2009,12,10,06,19,-8.90
2009,12,10,06,20,-8.90
2009,12,10,06,21,-8.90
2009,12,10,06,22,-8.90
2009,12,10,06,23,-8.90
2009,12,10,06,24,-8.90
2009,12,10,06,25,-8.90
2009,12,10,06,26,-8.90
2009,12,10,06,27,-8.90
2009,12,10,06,28,-8.90
2009,12,10,06,29,-8.90
2009,12,10,06,30,-8.90
2009,12,10,06,31,-8.90
2009,12,10,06,32,-8.90
2009,12,10,06,33,-8.90
2009,12,10,06,34,-8.90
2009,12,10,06,35,-8.80
2009,12,10,06,36,-8.80
2009,12,10,06,37,-8.80
2009,12,10,06,38,-8.80
2009,12,10,06,39,-8.80
2009,12,10,06,40,-8.80
2009,12,10,06,41,-8.70
2009,12,10,06,42,-8.70
2009,12,10,06,43,-8.70
2009,12,10,06,44,-8.70
2009,12,10,06,45,-8.70
2009,12,10,06,46,-8.70
2009,12,10,06,47,-8.70
2009,12,10,06,48,-8.70
2009,12,10,06,49,-8.70
2009,12,10,06,50,-8.70
2009,12,10,06,51,-8.70
2009,12,10,06,52,-8.70
2009,12,10,06,53,-8.70
2009,12,10,06,54,-8.70
2009,12,10,06,55,-8.70
2009,12,10,06,56,-8.70
2009,12,10,06,57,-8.70
2009,12,10,06,58,-8.70
2009,12,10,06,59,-8.70
2009,12,10,07,00,-8.70
2009,12,10,07,01,-8.70
2009,12,10,07,02,-8.70
2009,12,10,07,03,-8.70
2009,12,10,07,04,-8.70
2009,12,10,07,05,-8.70
2009,12,10,07,06,-8.70
2009,12,10,07,07,-8.70
2009,12,10,07,08,-8.70
2009,12,10,07,09,-8.70
2009,12,10,07,10,-8.70
2009,12,10,07,11,-8.80
2009,12,10,07,12,-8.80
2009,12,10,07,13,-8.80
2009,12,10,07,14,-8.80
2009,12,10,07,15,-8.80
2009,12,10,07,16,-8.80
2009,12,10,07,17,-8.80
2009,12,10,07,18,-8.80
2009,12,10,07,19,-8.90
2009,12,10,07,20,-8.90
2009,12,10,07,21,-8.90
2009,12,10,07,22,-8.90
2009,12,10,07,23,-8.90
2009,12,10,07,24,-8.90
2009,12,10,07,25,-8.90
2009,12,10,07,26,-8.90
2009,12,10,07,27,-8.90
2009,12,10,07,28,-8.90
2009,12,10,07,29,-8.90
2009,12,10,07,30,-8.90
2009,12,10,07,31,-8.90
2009,12,10,07,32,-8.80
2009,12,10,07,33,-8.80
2009,12,10,07,34,-8.80
2009,12,10,07,35,-8.80
2009,12,10,07,36,-8.80
2009,12,10,07,37,-8.80
2009,12,10,07,38,-8.80
2009,12,10,07,39,-8.80
2009,12,10,07,40,-8.80
2009,12,10,07,41,-8.80
2009,12,10,07,42,-8.80
2009,12,10,07,43,-8.80
2009,12,10,07,44,-8.80
2009,12,10,07,45,-8.80
2009,12,10,07,46,-8.80
2009,12,10,07,47,-8.80
2009,12,10,07,48,-8.80
2009,12,10,07,49,-8.70
2009,12,10,07,50,-8.70
2009,12,10,07,51,-8.70
2009,12,10,07,52,-8.70
2009,12,10,07,53,-8.70
2009,12,10,07,54,-8.70
2009,12,10,07,55,-8.70
2009,12,10,07,56,-8.70
2009,12,10,07,57,-8.70
2009,12,10,07,58,-8.70
2009,12,10,07,59,-8.70
2009,12,10,08,00,-8.60
2009,12,10,08,01,-8.60
2009,12,10,08,02,-8.60
2009,12,10,08,03,-8.60
2009,12,10,08,04,-8.50
2009,12,10,08,05,-8.50
2009,12,10,08,06,-8.50
2009,12,10,08,07,-8.40
2009,12,10,08,08,-8.40
2009,12,10,08,09,-8.40
2009,12,10,08,10,-8.30
2009,12,10,08,11,-8.30
2009,12,10,08,12,-8.20
2009,12,10,08,13,-8.20
2009,12,10,08,14,-8.10
2009,12,10,08,15,-8.10
2009,12,10,08,16,-8.10
2009,12,10,08,17,-8.00
2009,12,10,08,18,-7.90
2009,12,10,08,19,-7.90
2009,12,10,08,20,-7.80
2009,12,10,08,21,-7.80
2009,12,10,08,22,-7.80
2009,12,10,08,23,-7.70
2009,12,10,08,24,-7.70
2009,12,10,08,25,-7.70
2009,12,10,08,26,-7.60
2009,12,10,08,27,-7.60
2009,12,10,08,28,-7.50
2009,12,10,08,29,-7.50
2009,12,10,08,30,-7.50
2009,12,10,08,31,-7.40
2009,12,10,08,32,-7.40
2009,12,10,08,33,-7.40
2009,12,10,08,34,-7.30
2009,12,10,08,35,-7.30
2009,12,10,08,36,-7.30
2009,12,10,08,37,-7.30
2009,12,10,08,38,-7.20
2009,12,10,08,39,-7.20
2009,12,10,08,40,-7.20
2009,12,10,08,41,-7.10
2009,12,10,08,42,-7.10
2009,12,10,08,43,-7.10
2009,12,10,08,44,-7.00
2009,12,10,08,45,-6.90
2009,12,10,08,46,-6.90
2009,12,10,08,47,-6.80
2009,12,10,08,48,-6.80
2009,12,10,08,49,-6.80
2009,12,10,08,50,-6.80
2009,12,10,08,51,-6.70
2009,12,10,08,52,-6.70
2009,12,10,08,53,-6.60
2009,12,10,08,54,-6.60
2009,12,10,08,55,-6.60
2009,12,10,08,56,-6.60
2009,12,10,08,57,-6.50
2009,12,10,08,58,-6.50
2009,12,10,08,59,-6.40
2009,12,10,09,00,-6.40
2009,12,10,09,01,-6.40
2009,12,10,09,02,-6.30
2009,12,10,09,03,-6.30
2009,12,10,09,04,-6.30
2009,12,10,09,05,-6.30
2009,12,10,09,06,-6.20
2009,12,10,09,07,-6.20
2009,12,10,09,08,-6.20
2009,12,10,09,09,-6.10
2009,12,10,09,10,-6.10
2009,12,10,09,11,-6.00
2009,12,10,09,12,-6.00
2009,12,10,09,13,-6.00
2009,12,10,09,14,-5.90
2009,12,10,09,15,-5.90
2009,12,10,09,16,-5.90
2009,12,10,09,17,-5.80
2009,12,10,09,18,-5.80
2009,12,10,09,19,-5.80
2009,12,10,09,20,-5.70
2009,12,10,09,21,-5.70
2009,12,10,09,22,-5.70
2009,12,10,09,23,-5.60
2009,12,10,09,24,-5.60
2009,12,10,09,25,-5.50
2009,12,10,09,26,-5.40
2009,12,10,09,27,-5.40
2009,12,10,09,28,-5.40
2009,12,10,09,29,-5.30
2009,12,10,09,30,-5.30
2009,12,10,09,31,-5.20
2009,12,10,09,32,-5.20
2009,12,10,09,33,-5.10
2009,12,10,09,34,-5.10
2009,12,10,09,35,-5.10
2009,12,10,09,36,-5.00
2009,12,10,09,37,-5.00
2009,12,10,09,38,-4.90
2009,12,10,09,39,-4.90
2009,12,10,09,40,-4.90
2009,12,10,09,41,-4.80
2009,12,10,09,42,-4.80
2009,12,10,09,43,-4.70
2009,12,10,09,44,-4.70
2009,12,10,09,45,-4.60
2009,12,10,09,46,-4.60
2009,12,10,09,47,-4.50
2009,12,10,09,48,-4.50
2009,12,10,09,49,-4.40
2009,12,10,09,50,-4.30
2009,12,10,09,51,-4.30
2009,12,10,09,52,-4.20
2009,12,10,09,53,-4.20
2009,12,10,09,54,-4.10
2009,12,10,09,55,-4.10
2009,12,10,09,56,-4.00
2009,12,10,09,57,-4.00
2009,12,10,09,58,-3.90
2009,12,10,09,59,-3.90
2009,12,10,10,00,-3.80
2009,12,10,10,01,-3.80
2009,12,10,10,02,-3.80
2009,12,10,10,03,-3.70
2009,12,10,10,04,-3.70
2009,12,10,10,05,-3.60
2009,12,10,10,06,-3.60
2009,12,10,10,07,-3.50
2009,12,10,10,08,-3.40
2009,12,10,10,09,-3.40
2009,12,10,10,10,-3.30
2009,12,10,10,11,-3.30
2009,12,10,10,12,-3.20
2009,12,10,10,13,-3.20
2009,12,10,10,14,-3.20
2009,12,10,10,15,-3.10
2009,12,10,10,16,-3.10
2009,12,10,10,17,-3.00
2009,12,10,10,18,-3.00
2009,12,10,10,19,-2.90
2009,12,10,10,20,-2.90
2009,12,10,10,21,-2.90
2009,12,10,10,22,-2.80
2009,12,10,10,23,-2.80
2009,12,10,10,24,-2.70
2009,12,10,10,25,-2.70
2009,12,10,10,26,-2.70
2009,12,10,10,27,-2.70
2009,12,10,10,28,-2.60
2009,12,10,10,29,-2.60
2009,12,10,10,30,-2.60
2009,12,10,10,31,-2.50
2009,12,10,10,32,-2.50
2009,12,10,10,33,-2.40
2009,12,10,10,34,-2.40
2009,12,10,10,35,-2.40
2009,12,10,10,36,-2.30
2009,12,10,10,37,-2.30
2009,12,10,10,38,-2.30
2009,12,10,10,39,-2.20
2009,12,10,10,40,-2.20
2009,12,10,10,41,-2.20
2009,12,10,10,42,-2.10
2009,12,10,10,43,-2.10
2009,12,10,10,44,-2.00
2009,12,10,10,45,-2.00
2009,12,10,10,46,-2.00
2009,12,10,10,47,-1.90
2009,12,10,10,48,-1.90
2009,12,10,10,49,-1.90
2009,12,10,10,50,-1.80
2009,12,10,10,51,-1.80
2009,12,10,10,52,-1.80
2009,12,10,10,53,-1.80
2009,12,10,10,54,-1.80
2009,12,10,10,55,-1.70
2009,12,10,10,56,-1.70
2009,12,10,10,57,-1.70
2009,12,10,10,58,-1.70
2009,12,10,10,59,-1.70
2009,12,10,11,00,-1.60
2009,12,10,11,01,-1.60
2009,12,10,11,02,-1.60
2009,12,10,11,03,-1.60
2009,12,10,11,04,-1.60
2009,12,10,11,05,-1.50
2009,12,10,11,06,-1.50
2009,12,10,11,07,-1.50
2009,12,10,11,08,-1.40
2009,12,10,11,09,-1.40
2009,12,10,11,10,-1.40
2009,12,10,11,11,-1.40
2009,12,10,11,12,-1.30
2009,12,10,11,13,-1.30
2009,12,10,11,14,-1.30
2009,12,10,11,15,-1.30
2009,12,10,11,16,-1.30
2009,12,10,11,17,-1.20
2009,12,10,11,18,-1.20
2009,12,10,11,19,-1.20
2009,12,10,11,20,-1.20
2009,12,10,11,21,-1.20
2009,12,10,11,22,-1.10
2009,12,10,11,23,-1.10
2009,12,10,11,24,-1.10
2009,12,10,11,25,-1.10
2009,12,10,11,26,-1.10
2009,12,10,11,27,-1.10
2009,12,10,11,28,-1.10
2009,12,10,11,29,-1.10
2009,12,10,11,30,-1.10
2009,12,10,11,31,-1.10
2009,12,10,11,32,-1.00
2009,12,10,11,33,-1.00
2009,12,10,11,34,-1.00
2009,12,10,11,35,-1.00
2009,12,10,11,36,-1.00
2009,12,10,11,37,-1.00
2009,12,10,11,38,-1.00
2009,12,10,11,39,-1.00
2009,12,10,11,40,-1.00
2009,12,10,11,41,-1.00
2009,12,10,11,42,-0.90
2009,12,10,11,43,-0.90
2009,12,10,11,44,-0.90
2009,12,10,11,45,-0.90
2009,12,10,11,46,-0.90
2009,12,10,11,47,-0.90
2009,12,10,11,48,-0.90
2009,12,10,11,49,-0.80
2009,12,10,11,50,-0.80
2009,12,10,11,51,-0.80
2009,12,10,11,52,-0.80
2009,12,10,11,53,-0.80
2009,12,10,11,54,-0.80
2009,12,10,11,55,-0.80
2009,12,10,11,56,-0.80
2009,12,10,11,57,-0.80
2009,12,10,11,58,-0.80
2009,12,10,11,59,-0.80
2009,12,10,12,00,-0.70
2009,12,10,12,01,-0.70
2009,12,10,12,02,-0.70
2009,12,10,12,03,-0.70
2009,12,10,12,04,-0.70
2009,12,10,12,05,-0.70
2009,12,10,12,06,-0.70
2009,12,10,12,07,-0.70
2009,12,10,12,08,-0.70
2009,12,10,12,09,-0.70
2009,12,10,12,10,-0.70
2009,12,10,12,11,-0.60
2009,12,10,12,12,-0.60
2009,12,10,12,13,-0.60
2009,12,10,12,14,-0.60
2009,12,10,12,15,-0.60
2009,12,10,12,16,-0.50
2009,12,10,12,17,-0.50
2009,12,10,12,18,-0.40
2009,12,10,12,19,-0.40
2009,12,10,12,20,-0.30
2009,12,10,12,21,-0.20
2009,12,10,12,22,-0.10
2009,12,10,12,23,-0.10
2009,12,10,12,24,-0.10
2009,12,10,12,25,-0.10
2009,12,10,12,26,-0.10
2009,12,10,12,27,-0.10
2009,12,10,12,28,-0.10
2009,12,10,12,29,-0.10
2009,12,10,12,30,-0.10
2009,12,10,12,31,-0.10
2009,12,10,12,32,-0.10
2009,12,10,12,33,-0.10
2009,12,10,12,34,-0.10
2009,12,10,12,35,-0.10
2009,12,10,12,36,-0.10
2009,12,10,12,37,-0.20
2009,12,10,12,38,-0.20
2009,12,10,12,39,-0.20
2009,12,10,12,40,-0.20
2009,12,10,12,41,-0.20
2009,12,10,12,42,-0.20
2009,12,10,12,43,-0.10
2009,12,10,12,44,-0.10
2009,12,10,12,45,0.00
2009,12,10,12,46,0.00
2009,12,10,12,47,0.10
2009,12,10,12,48,0.10
2009,12,10,12,49,0.10
2009,12,10,12,50,0.10
2009,12,10,12,51,0.10
2009,12,10,12,52,0.10
2009,12,10,12,53,0.10
2009,12,10,12,54,0.10
2009,12,10,12,55,0.20
2009,12,10,12,56,0.20
2009,12,10,12,57,0.20
2009,12,10,12,58,0.20
2009,12,10,12,59,0.20
2009,12,10,13,00,0.20
2009,12,10,13,01,0.30
2009,12,10,13,02,0.30
2009,12,10,13,03,0.30
2009,12,10,13,04,0.20
2009,12,10,13,05,0.20
2009,12,10,13,06,0.20
2009,12,10,13,07,0.20
2009,12,10,13,08,0.20
2009,12,10,13,09,0.20
2009,12,10,13,10,0.20
2009,12,10,13,11,0.20
2009,12,10,13,12,0.10
2009,12,10,13,13,0.10
2009,12,10,13,14,0.10
2009,12,10,13,15,0.00
2009,12,10,13,16,0.00
2009,12,10,13,17,0.00
2009,12,10,13,18,0.00
2009,12,10,13,19,0.00
2009,12,10,13,20,0.00
2009,12,10,13,21,0.00
2009,12,10,13,22,0.10
2009,12,10,13,23,0.10
2009,12,10,13,24,0.10
2009,12,10,13,25,0.10
2009,12,10,13,26,0.10
2009,12,10,13,27,0.10
2009,12,10,13,28,0.10
2009,12,10,13,29,0.00
2009,12,10,13,30,0.00
2009,12,10,13,31,0.00
2009,12,10,13,32,0.00
2009,12,10,13,33,0.00
2009,12,10,13,34,0.00
2009,12,10,13,35,0.00
2009,12,10,13,36,-0.10
2009,12,10,13,37,-0.10
2009,12,10,13,38,-0.10
2009,12,10,13,39,-0.10
2009,12,10,13,40,-0.10
2009,12,10,13,41,-0.20
2009,12,10,13,42,-0.20
2009,12,10,13,43,-0.10
2009,12,10,13,44,-0.10
2009,12,10,13,45,-0.10
2009,12,10,13,46,-0.10
2009,12,10,13,47,-0.10
2009,12,10,13,48,0.00
2009,12,10,13,49,0.00
2009,12,10,13,50,0.00
2009,12,10,13,51,0.00
2009,12,10,13,52,0.00
2009,12,10,13,53,0.00
2009,12,10,13,54,0.00
2009,12,10,13,55,0.00
2009,12,10,13,56,0.00
2009,12,10,13,57,0.00
2009,12,10,13,58,0.00
2009,12,10,13,59,0.00
2009,12,10,14,00,0.00
2009,12,10,14,01,0.00
2009,12,10,14,02,0.00
2009,12,10,14,03,0.00
2009,12,10,14,04,-0.10
2009,12,10,14,05,0.00
2009,12,10,14,06,0.00
2009,12,10,14,07,0.00
2009,12,10,14,08,0.00
2009,12,10,14,09,0.00
2009,12,10,14,10,0.00
2009,12,10,14,11,0.00
2009,12,10,14,12,0.10
2009,12,10,14,13,0.10
2009,12,10,14,14,0.10
2009,12,10,14,15,0.10
2009,12,10,14,16,0.10
2009,12,10,14,17,0.10
2009,12,10,14,18,0.20
2009,12,10,14,19,0.20
2009,12,10,14,20,0.20
2009,12,10,14,21,0.30
2009,12,10,14,22,0.30
2009,12,10,14,23,0.30
2009,12,10,14,24,0.30
2009,12,10,14,25,0.30
2009,12,10,14,26,0.30
2009,12,10,14,27,0.30
2009,12,10,14,28,0.30
2009,12,10,14,29,0.30
2009,12,10,14,30,0.30
2009,12,10,14,31,0.30
2009,12,10,14,32,0.30
2009,12,10,14,33,0.30
2009,12,10,14,34,0.20
2009,12,10,14,35,0.20
2009,12,10,14,36,0.20
2009,12,10,14,37,0.20
2009,12,10,14,38,0.20
2009,12,10,14,39,0.20
2009,12,10,14,40,0.20
2009,12,10,14,41,0.20
2009,12,10,14,42,0.20
2009,12,10,14,43,0.20
2009,12,10,14,44,0.20
2009,12,10,14,45,0.20
2009,12,10,14,46,0.20
2009,12,10,14,47,0.20
2009,12,10,14,48,0.10
2009,12,10,14,49,0.10
2009,12,10,14,50,0.10
2009,12,10,14,51,0.10
2009,12,10,14,52,0.10
2009,12,10,14,53,0.10
2009,12,10,14,54,0.10
2009,12,10,14,55,0.10
2009,12,10,14,56,0.10
2009,12,10,14,57,0.10
2009,12,10,14,58,0.10
2009,12,10,14,59,0.10
2009,12,10,15,00,0.10
2009,12,10,15,01,0.10
2009,12,10,15,02,0.10
2009,12,10,15,03,0.10
2009,12,10,15,04,0.10
2009,12,10,15,05,0.10
2009,12,10,15,06,0.10
2009,12,10,15,07,0.10
2009,12,10,15,08,0.10
2009,12,10,15,09,0.10
2009,12,10,15,10,0.10
2009,12,10,15,11,0.10
2009,12,10,15,12,0.10
2009,12,10,15,13,0.10
2009,12,10,15,14,0.10
2009,12,10,15,15,0.00
2009,12,10,15,16,0.00
2009,12,10,15,17,0.00
2009,12,10,15,18,0.00
2009,12,10,15,19,0.00
2009,12,10,15,20,0.00
2009,12,10,15,21,0.00
2009,12,10,15,22,0.00
2009,12,10,15,23,0.00
2009,12,10,15,24,0.00
2009,12,10,15,25,-0.10
2009,12,10,15,26,-0.10
2009,12,10,15,27,-0.10
2009,12,10,15,28,-0.10
2009,12,10,15,29,-0.10
2009,12,10,15,30,-0.10
2009,12,10,15,31,-0.10
2009,12,10,15,32,-0.10
2009,12,10,15,33,-0.10
2009,12,10,15,34,-0.10
2009,12,10,15,35,-0.10
2009,12,10,15,36,-0.10
2009,12,10,15,37,-0.10
2009,12,10,15,38,-0.10
2009,12,10,15,39,-0.20
2009,12,10,15,40,-0.20
2009,12,10,15,41,-0.20
2009,12,10,15,42,-0.20
2009,12,10,15,43,-0.20
2009,12,10,15,44,-0.20
2009,12,10,15,45,-0.20
2009,12,10,15,46,-0.20
2009,12,10,15,47,-0.20
2009,12,10,15,48,-0.20
2009,12,10,15,49,-0.20
2009,12,10,15,50,-0.20
2009,12,10,15,51,-0.20
2009,12,10,15,52,-0.30
2009,12,10,15,53,-0.30
2009,12,10,15,54,-0.30
2009,12,10,15,55,-0.30
2009,12,10,15,56,-0.30
2009,12,10,15,57,-0.30
2009,12,10,15,58,-0.30
2009,12,10,15,59,-0.30
2009,12,10,16,00,-0.30
2009,12,10,16,01,-0.30
2009,12,10,16,02,-0.30
2009,12,10,16,03,-0.30
2009,12,10,16,04,-0.30
2009,12,10,16,05,-0.30
2009,12,10,16,06,-0.30
2009,12,10,16,07,-0.30
2009,12,10,16,08,-0.40
2009,12,10,16,09,-0.40
2009,12,10,16,10,-0.40
2009,12,10,16,11,-0.40
2009,12,10,16,12,-0.40
2009,12,10,16,13,-0.40
2009,12,10,16,14,-0.40
2009,12,10,16,15,-0.40
2009,12,10,16,16,-0.40
2009,12,10,16,17,-0.50
2009,12,10,16,18,-0.50
2009,12,10,16,19,-0.50
2009,12,10,16,20,-0.50
2009,12,10,16,21,-0.50
2009,12,10,16,22,-0.50
2009,12,10,16,23,-0.50
2009,12,10,16,24,-0.60
2009,12,10,16,25,-0.60
2009,12,10,16,26,-0.60
2009,12,10,16,27,-0.60
2009,12,10,16,28,-0.60
2009,12,10,16,29,-0.60
2009,12,10,16,30,-0.60
2009,12,10,16,31,-0.60
2009,12,10,16,32,-0.60
2009,12,10,16,33,-0.60
2009,12,10,16,34,-0.60
2009,12,10,16,35,-0.60
2009,12,10,16,36,-0.70
2009,12,10,16,37,-0.70
2009,12,10,16,38,-0.70
2009,12,10,16,39,-0.70
2009,12,10,16,40,-0.70
2009,12,10,16,41,-0.70
2009,12,10,16,42,-0.70
2009,12,10,16,43,-0.70
2009,12,10,16,44,-0.70
2009,12,10,16,45,-0.70
2009,12,10,16,46,-0.70
2009,12,10,16,47,-0.70
2009,12,10,16,48,-0.80
2009,12,10,16,49,-0.80
2009,12,10,16,50,-0.80
2009,12,10,16,51,-0.80
2009,12,10,16,52,-0.80
2009,12,10,16,53,-0.80
2009,12,10,16,54,-0.80
2009,12,10,16,55,-0.80
2009,12,10,16,56,-0.80
2009,12,10,16,57,-0.80
2009,12,10,16,58,-0.80
2009,12,10,16,59,-0.80
2009,12,10,17,00,-0.80
2009,12,10,17,01,-0.90
2009,12,10,17,02,-0.90
2009,12,10,17,03,-0.90
2009,12,10,17,04,-0.90
2009,12,10,17,05,-0.90
2009,12,10,17,06,-0.90
2009,12,10,17,07,-0.90
2009,12,10,17,08,-0.90
2009,12,10,17,09,-0.90
2009,12,10,17,10,-0.90
2009,12,10,17,11,-0.90
2009,12,10,17,12,-0.90
2009,12,10,17,13,-0.90
2009,12,10,17,14,-0.90
2009,12,10,17,15,-0.90
2009,12,10,17,16,-1.00
2009,12,10,17,17,-1.00
2009,12,10,17,18,-1.00
2009,12,10,17,19,-1.00
2009,12,10,17,20,-1.00
2009,12,10,17,21,-1.00
2009,12,10,17,22,-1.00
2009,12,10,17,23,-1.10
2009,12,10,17,24,-1.10
2009,12,10,17,25,-1.10
2009,12,10,17,26,-1.10
2009,12,10,17,27,-1.10